Time,TemperatureF,DewpointF,PressureIn,WindDirection,WindDirectionDegrees,WindSpeedMPH,WindSpeedGustMPH,Humidity,HourlyPrecipIn,Conditions,Clouds,dailyrainin,SolarRadiationWatts/m^2,SoftwareType,DateUTC
2013-02-19 00:11:00,13.0,4.0,-100.00,North,1,5.0,9.0,67,0.00,,,0.00,0.000000,,2013-02-19 09:11:00,
2013-02-19 00:21:00,13.0,4.0,-100.00,North,1,5.0,9.0,67,0.00,,,0.00,0.000000,,2013-02-19 09:21:00,
2013-02-19 00:31:00,13.0,4.0,-100.00,North,1,5.0,9.0,67,0.00,,,0.00,0.000000,,2013-02-19 09:31:00,
2013-02-19 00:41:00,13.0,4.0,-100.00,North,1,5.0,9.0,67,0.00,,,0.00,0.000000,,2013-02-19 09:41:00,
2013-02-19 00:52:00,13.0,4.0,-100.00,North,1,5.0,9.0,67,0.00,,,0.00,0.000000,,2013-02-19 09:52:00,
2013-02-19 01:11:00,13.0,3.0,-100.00,NNE,28,4.0,11.0,64,0.00,,,0.00,0.000000,,2013-02-19 10:11:00,
2013-02-19 01:21:00,13.0,3.0,-100.00,NNE,28,4.0,11.0,64,0.00,,,0.00,0.000000,,2013-02-19 10:21:00,
2013-02-19 01:31:00,13.0,3.0,-100.00,NNE,28,4.0,11.0,64,0.00,,,0.00,0.000000,,2013-02-19 10:31:00,
2013-02-19 01:41:00,13.0,3.0,-100.00,NNE,28,4.0,11.0,64,0.00,,,0.00,0.000000,,2013-02-19 10:41:00,
2013-02-19 01:51:00,13.0,3.0,-100.00,NNE,28,4.0,11.0,64,0.00,,,0.00,0.000000,,2013-02-19 10:51:00,
2013-02-19 02:21:00,11.0,4.0,-100.00,NW,306,2.0,8.0,72,0.00,,,0.00,0.000000,,2013-02-19 11:21:00,
2013-02-19 02:32:00,11.0,4.0,-100.00,NW,306,2.0,8.0,72,0.00,,,0.00,0.000000,,2013-02-19 11:32:00,
2013-02-19 02:42:00,11.0,4.0,-100.00,NW,306,2.0,8.0,72,0.00,,,0.00,0.000000,,2013-02-19 11:42:00,
2013-02-19 02:52:00,11.0,4.0,-100.00,NW,306,2.0,8.0,72,0.00,,,0.00,0.000000,,2013-02-19 11:52:00,
2013-02-19 03:21:00,13.0,6.0,-100.00,SSW,207,1.0,4.0,73,0.00,,,0.00,0.000000,,2013-02-19 12:21:00,
2013-02-19 03:32:00,13.0,6.0,-100.00,SSW,207,1.0,4.0,73,0.00,,,0.00,0.000000,,2013-02-19 12:32:00,
2013-02-19 03:42:00,13.0,6.0,-100.00,SSW,207,1.0,4.0,73,0.00,,,0.00,0.000000,,2013-02-19 12:42:00,
2013-02-19 03:52:00,13.0,6.0,-100.00,SSW,207,1.0,4.0,73,0.00,,,0.00,0.000000,,2013-02-19 12:52:00,
2013-02-19 04:22:00,13.0,6.0,-100.00,NNW,346,3.0,5.0,73,0.00,,,-99.99,0.000000,,2013-02-19 13:22:00,
2013-02-19 04:32:00,13.0,6.0,-100.00,NNW,346,3.0,5.0,73,0.00,,,-99.99,0.000000,,2013-02-19 13:32:00,
2013-02-19 04:41:00,13.0,6.0,-100.00,NNW,346,3.0,5.0,73,0.00,,,-99.99,0.000000,,2013-02-19 13:41:00,
2013-02-19 04:52:00,13.0,6.0,-100.00,NNW,346,3.0,5.0,73,0.00,,,-99.99,0.000000,,2013-02-19 13:52:00,
2013-02-19 05:11:00,13.0,4.0,-100.00,NNE,21,3.0,9.0,66,0.00,,,0.00,0.000000,,2013-02-19 14:11:00,
2013-02-19 05:21:00,13.0,4.0,-100.00,NNE,21,3.0,9.0,66,0.00,,,0.00,0.000000,,2013-02-19 14:21:00,
2013-02-19 05:32:00,13.0,4.0,-100.00,NNE,21,3.0,9.0,66,0.00,,,0.00,0.000000,,2013-02-19 14:32:00,
2013-02-19 05:41:00,13.0,4.0,-100.00,NNE,21,3.0,9.0,66,0.00,,,0.00,0.000000,,2013-02-19 14:41:00,
2013-02-19 05:52:00,13.0,4.0,-100.00,NNE,21,3.0,9.0,66,0.00,,,0.00,0.000000,,2013-02-19 14:52:00,
2013-02-19 06:11:00,14.0,8.0,-100.00,NNE,13,3.0,6.0,75,0.00,,,0.00,0.000000,,2013-02-19 15:11:00,
2013-02-19 06:21:00,14.0,8.0,-100.00,NNE,13,3.0,6.0,75,0.00,,,0.00,0.000000,,2013-02-19 15:21:00,
2013-02-19 06:31:00,14.0,8.0,-100.00,NNE,13,3.0,6.0,75,0.00,,,0.00,0.000000,,2013-02-19 15:31:00,
2013-02-19 06:42:00,14.0,8.0,-100.00,NNE,13,3.0,6.0,75,0.00,,,0.00,0.000000,,2013-02-19 15:42:00,
2013-02-19 06:52:00,14.0,8.0,-100.00,NNE,13,3.0,6.0,75,0.00,,,0.00,0.000000,,2013-02-19 15:52:00,
2013-02-19 07:11:00,15.0,9.0,-100.00,NNE,13,3.0,7.0,76,0.00,,,0.00,0.000000,,2013-02-19 16:11:00,
2013-02-19 07:21:00,15.0,9.0,-100.00,NNE,13,3.0,7.0,76,0.00,,,0.00,0.000000,,2013-02-19 16:21:00,
2013-02-19 07:31:00,15.0,9.0,-100.00,NNE,13,3.0,7.0,76,0.00,,,0.00,0.000000,,2013-02-19 16:31:00,
2013-02-19 07:41:00,15.0,9.0,-100.00,NNE,13,3.0,7.0,76,0.00,,,0.00,0.000000,,2013-02-19 16:41:00,
2013-02-19 07:51:00,15.0,9.0,-100.00,NNE,13,3.0,7.0,76,0.00,,,0.00,0.000000,,2013-02-19 16:51:00,
2013-02-19 08:11:00,15.0,9.0,-100.00,North,2,0.0,4.0,78,0.00,,,-99.99,0.000000,,2013-02-19 17:11:00,
2013-02-19 08:21:00,15.0,9.0,-100.00,North,2,0.0,4.0,78,0.00,,,-99.99,0.000000,,2013-02-19 17:21:00,
2013-02-19 08:32:00,15.0,9.0,-100.00,North,2,0.0,4.0,78,0.00,,,-99.99,0.000000,,2013-02-19 17:32:00,
2013-02-19 08:41:00,15.0,9.0,-100.00,North,2,0.0,4.0,78,0.00,,,-99.99,0.000000,,2013-02-19 17:41:00,
2013-02-19 08:51:00,15.0,9.0,-100.00,North,2,0.0,4.0,78,0.00,,,-99.99,0.000000,,2013-02-19 17:51:00,
2013-02-19 09:21:00,15.0,9.0,-100.00,NNE,29,1.0,4.0,78,0.00,,,0.00,2.000000,,2013-02-19 18:21:00,
2013-02-19 09:31:00,15.0,9.0,-100.00,NNE,29,1.0,4.0,78,0.00,,,0.00,2.000000,,2013-02-19 18:31:00,
2013-02-19 09:41:00,15.0,9.0,-100.00,NNE,29,1.0,4.0,78,0.00,,,0.00,2.000000,,2013-02-19 18:41:00,
2013-02-19 09:51:00,15.0,9.0,-100.00,NNE,29,1.0,4.0,78,0.00,,,0.00,2.000000,,2013-02-19 18:51:00,
2013-02-19 10:21:00,17.0,10.0,-100.00,WSW,250,2.0,4.0,75,0.00,,,0.00,34.000000,,2013-02-19 19:21:00,
2013-02-19 10:31:00,17.0,10.0,-100.00,WSW,250,2.0,4.0,75,0.00,,,0.00,34.000000,,2013-02-19 19:31:00,
2013-02-19 10:41:00,17.0,10.0,-100.00,WSW,250,2.0,4.0,75,0.00,,,0.00,34.000000,,2013-02-19 19:41:00,
2013-02-19 10:51:00,17.0,10.0,-100.00,WSW,250,2.0,4.0,75,0.00,,,0.00,34.000000,,2013-02-19 19:51:00,
2013-02-19 11:21:00,19.0,13.0,-100.00,NNE,12,2.0,4.0,76,0.00,,,0.00,73.000000,,2013-02-19 20:21:00,
2013-02-19 11:32:00,19.0,13.0,-100.00,NNE,12,2.0,4.0,76,0.00,,,0.00,73.000000,,2013-02-19 20:32:00,
2013-02-19 11:41:00,19.0,13.0,-100.00,NNE,12,2.0,4.0,76,0.00,,,0.00,73.000000,,2013-02-19 20:41:00,
2013-02-19 11:52:00,19.0,13.0,-100.00,NNE,12,2.0,4.0,76,0.00,,,0.00,73.000000,,2013-02-19 20:52:00,
2013-02-19 12:11:00,26.0,19.0,-100.00,NNE,15,4.0,10.0,74,0.00,,,0.00,90.000000,,2013-02-19 21:11:00,
2013-02-19 12:21:00,26.0,19.0,-100.00,NNE,15,4.0,10.0,74,0.00,,,0.00,90.000000,,2013-02-19 21:21:00,
2013-02-19 12:31:00,26.0,19.0,-100.00,NNE,15,4.0,10.0,74,0.00,,,0.00,90.000000,,2013-02-19 21:31:00,
2013-02-19 12:42:00,26.0,19.0,-100.00,NNE,15,4.0,10.0,74,0.00,,,0.00,90.000000,,2013-02-19 21:42:00,
2013-02-19 12:51:00,26.0,19.0,-100.00,NNE,15,4.0,10.0,74,0.00,,,0.00,90.000000,,2013-02-19 21:51:00,
2013-02-19 13:21:00,28.0,20.0,-100.00,North,8,6.0,11.0,71,0.00,,,0.00,84.000000,,2013-02-19 22:21:00,
2013-02-19 13:32:00,28.0,20.0,-100.00,North,8,6.0,11.0,71,0.00,,,0.00,84.000000,,2013-02-19 22:32:00,
2013-02-19 13:41:00,28.0,20.0,-100.00,North,8,6.0,11.0,71,0.00,,,0.00,84.000000,,2013-02-19 22:41:00,
2013-02-19 13:51:00,28.0,20.0,-100.00,North,8,6.0,11.0,71,0.00,,,0.00,84.000000,,2013-02-19 22:51:00,
2013-02-19 14:11:00,30.0,22.0,-100.00,NNE,22,7.0,14.0,71,0.00,,,0.00,75.000000,,2013-02-19 23:11:00,
2013-02-19 14:21:00,30.0,22.0,-100.00,NNE,22,7.0,14.0,71,0.00,,,0.00,75.000000,,2013-02-19 23:21:00,
2013-02-19 14:31:00,30.0,22.0,-100.00,NNE,22,7.0,14.0,71,0.00,,,0.00,75.000000,,2013-02-19 23:31:00,
2013-02-19 14:41:00,30.0,22.0,-100.00,NNE,22,7.0,14.0,71,0.00,,,0.00,75.000000,,2013-02-19 23:41:00,
2013-02-19 14:51:00,30.0,22.0,-100.00,NNE,22,7.0,14.0,71,0.00,,,0.00,75.000000,,2013-02-19 23:51:00,
2013-02-19 15:11:00,30.0,22.0,-100.00,North,9,7.0,13.0,72,0.00,,,0.00,60.000000,,2013-02-20 00:11:00,
2013-02-19 15:21:00,30.0,22.0,-100.00,North,9,7.0,13.0,72,0.00,,,0.00,60.000000,,2013-02-20 00:21:00,
2013-02-19 15:31:00,30.0,22.0,-100.00,North,9,7.0,13.0,72,0.00,,,0.00,60.000000,,2013-02-20 00:31:00,
2013-02-19 15:41:00,30.0,22.0,-100.00,North,9,7.0,13.0,72,0.00,,,0.00,60.000000,,2013-02-20 00:41:00,
2013-02-19 15:51:00,30.0,22.0,-100.00,North,9,7.0,13.0,72,0.00,,,0.00,60.000000,,2013-02-20 00:51:00,
2013-02-19 16:11:00,27.0,22.0,-100.00,NE,43,4.0,12.0,80,0.00,,,0.00,49.000000,,2013-02-20 01:11:00,
2013-02-19 16:21:00,27.0,22.0,-100.00,NE,43,4.0,12.0,80,0.00,,,0.00,49.000000,,2013-02-20 01:21:00,
2013-02-19 16:31:00,27.0,22.0,-100.00,NE,43,4.0,12.0,80,0.00,,,0.00,49.000000,,2013-02-20 01:31:00,
2013-02-19 16:41:00,27.0,22.0,-100.00,NE,43,4.0,12.0,80,0.00,,,0.00,49.000000,,2013-02-20 01:41:00,
2013-02-19 16:51:00,27.0,22.0,-100.00,NE,43,4.0,12.0,80,0.00,,,0.00,49.000000,,2013-02-20 01:51:00,
2013-02-19 17:21:00,25.0,19.0,-100.00,North,350,6.0,14.0,79,0.00,,,0.00,19.000000,,2013-02-20 02:21:00,
2013-02-19 17:31:00,25.0,19.0,-100.00,North,350,6.0,14.0,79,0.00,,,0.00,19.000000,,2013-02-20 02:31:00,
2013-02-19 17:41:00,25.0,19.0,-100.00,North,350,6.0,14.0,79,0.00,,,0.00,19.000000,,2013-02-20 02:41:00,
2013-02-19 17:52:00,25.0,19.0,-100.00,North,350,6.0,14.0,79,0.00,,,0.00,19.000000,,2013-02-20 02:52:00,
2013-02-19 18:21:00,29.0,25.0,-100.00,NNE,22,8.0,14.0,83,0.00,,,0.00,11.000000,,2013-02-20 03:21:00,
2013-02-19 18:32:00,29.0,25.0,-100.00,NNE,22,8.0,14.0,83,0.00,,,0.00,11.000000,,2013-02-20 03:32:00,
2013-02-19 18:41:00,29.0,25.0,-100.00,NNE,22,8.0,14.0,83,0.00,,,0.00,11.000000,,2013-02-20 03:41:00,
2013-02-19 18:51:00,29.0,25.0,-100.00,NNE,22,8.0,14.0,83,0.00,,,0.00,11.000000,,2013-02-20 03:51:00,
2013-02-19 19:11:00,30.0,25.0,-100.00,NNE,27,11.0,19.0,81,0.00,,,0.00,0.000000,,2013-02-20 04:11:00,
2013-02-19 19:21:00,30.0,25.0,-100.00,NNE,27,11.0,19.0,81,0.00,,,0.00,0.000000,,2013-02-20 04:21:00,
2013-02-19 19:31:00,30.0,25.0,-100.00,NNE,27,11.0,19.0,81,0.00,,,0.00,0.000000,,2013-02-20 04:31:00,
2013-02-19 19:41:00,30.0,25.0,-100.00,NNE,27,11.0,19.0,81,0.00,,,0.00,0.000000,,2013-02-20 04:41:00,
2013-02-19 19:51:00,30.0,25.0,-100.00,NNE,27,11.0,19.0,81,0.00,,,0.00,0.000000,,2013-02-20 04:51:00,
2013-02-19 20:12:00,29.0,23.0,-100.00,North,7,11.0,21.0,78,0.00,,,0.00,0.000000,,2013-02-20 05:12:00,
2013-02-19 20:22:00,29.0,23.0,-100.00,North,7,11.0,21.0,78,0.00,,,0.00,0.000000,,2013-02-20 05:22:00,
2013-02-19 20:32:00,29.0,23.0,-100.00,North,7,11.0,21.0,78,0.00,,,0.00,0.000000,,2013-02-20 05:32:00,
2013-02-19 20:42:00,29.0,23.0,-100.00,North,7,11.0,21.0,78,0.00,,,0.00,0.000000,,2013-02-20 05:42:00,
2013-02-19 20:52:00,29.0,23.0,-100.00,North,7,11.0,21.0,78,0.00,,,0.00,0.000000,,2013-02-20 05:52:00,
2013-02-19 21:11:00,30.0,24.0,-100.00,North,5,10.0,21.0,78,0.00,,,0.00,0.000000,,2013-02-20 06:11:00,
2013-02-19 21:21:00,30.0,24.0,-100.00,North,5,10.0,21.0,78,0.00,,,0.00,0.000000,,2013-02-20 06:21:00,
2013-02-19 21:31:00,30.0,24.0,-100.00,North,5,10.0,21.0,78,0.00,,,0.00,0.000000,,2013-02-20 06:31:00,
2013-02-19 21:42:00,30.0,24.0,-100.00,North,5,10.0,21.0,78,0.00,,,0.00,0.000000,,2013-02-20 06:42:00,
2013-02-19 21:51:00,30.0,24.0,-100.00,North,5,10.0,21.0,78,0.00,,,0.00,0.000000,,2013-02-20 06:51:00,
2013-02-19 22:11:00,29.0,23.0,-100.00,North,358,10.0,21.0,79,0.00,,,0.00,0.000000,,2013-02-20 07:11:00,
2013-02-19 22:21:00,29.0,23.0,-100.00,North,358,10.0,21.0,79,0.00,,,0.00,0.000000,,2013-02-20 07:21:00,
2013-02-19 22:31:00,29.0,23.0,-100.00,North,358,10.0,21.0,79,0.00,,,0.00,0.000000,,2013-02-20 07:31:00,
2013-02-19 22:41:00,29.0,23.0,-100.00,North,358,10.0,21.0,79,0.00,,,0.00,0.000000,,2013-02-20 07:41:00,
2013-02-19 22:51:00,29.0,23.0,-100.00,North,358,10.0,21.0,79,0.00,,,0.00,0.000000,,2013-02-20 07:51:00,
2013-02-19 23:11:00,29.0,24.0,-100.00,NNE,13,10.0,19.0,81,0.00,,,0.00,0.000000,,2013-02-20 08:11:00,
2013-02-19 23:21:00,29.0,24.0,-100.00,NNE,13,10.0,19.0,81,0.00,,,0.00,0.000000,,2013-02-20 08:21:00,
2013-02-19 23:31:00,29.0,24.0,-100.00,NNE,13,10.0,19.0,81,0.00,,,0.00,0.000000,,2013-02-20 08:31:00,
2013-02-19 23:41:00,29.0,24.0,-100.00,NNE,13,10.0,19.0,81,0.00,,,0.00,0.000000,,2013-02-20 08:41:00,
2013-02-19 23:51:00,29.0,24.0,-100.00,NNE,13,10.0,19.0,81,0.00,,,0.00,0.000000,,2013-02-20 08:51:00,